Find Starlink 31083

NORAD ID: 58670 Int'l Des: 2023-211 Owner: SPXS Country: US Constellation: starlink operational
LEOCIRCULAR

Current View

Loading 3D Globe...

About Starlink 31083

Starlink 31083 (NORAD 58670) is a starlink constellation satellite (v2 mini) launched Dec 29, 2023 by SPXS of US. It operates in LEO, CIRCULAR orbit with a mass of 730.00 kg.

About Starlink 31083

Description loading...

Upcoming Passes

Passes for default location (London). Set your location on the main map for personalized predictions.

Altitude History

Loading altitude history...

Two-Line Element Set

1 58670U 23211D 26178.30966594 -.00000507 00000-0 -89036-5 0 9996
2 58670 42.9994 185.8526 0001212 276.2796 83.7917 15.27572326139238
Epoch: Jun 27, 2026 • Age: 8 hours

Current Status

Altitude 482.8 km
Velocity 7.63 km/s
Sub-Earth Point -0.40°S, 38.69°E
Launch Date Dec 29, 2023
Age 2.4 years
Type internet

Technical Details

Classification Payload
Mass 730.00 kg
Dry Mass 700.00 kg
Total Mass 730.00 kg
Length 0.30 m
Diameter 4.10 m
Span 29.00 m
Shape Box + pan
Manufacturer SPXS
Bus Type Starlink V2M
Phase Status In Orbit
Owner/State SPXS/US

Most Searched